Regional Weather Roundup
Issued by NWS

Home | Current Version | Previous Version | Text Only | Print | Product List | Glossary On
Versions: 1 2 3 4 5 6 7 8 9 10 11 12 13 14 15 16 17 18 19 20 21 22 23 24 25 26 27 28 29 30 31 32 33 34 35 36 37 38 39 40 41 42 43 44 45 46 47 48 49 50
000
ASUS45 KTFX 250604
RWRMT
MONTANA HOURLY WEATHER ROUNDUP
NATIONAL WEATHER SERVICE GREAT FALLS MT
1204 AM MDT FRI APR 25 2014

NOTE: "FAIR" INDICATES FEW OR NO CLOUDS BELOW 12000 FEET WITH NO
SIGNIFICANT WEATHER AND/OR OBSTRUCTIONS TO VISIBILITY.

* THESE STATIONS ARE NOT UNDER NWS QUALITY CONTROL. THEY DO NOT
   REPORT WEATHER SUCH AS PRECIPITATION OR FOG.

MTZ001>007-043-250700-
WEST OF THE DIVIDE
CITY           SKY/WX    TMP DP  RH WIND       PRES   REMARKS
KALISPELL      MOCLDY    37  37 100 S3        29.81S
MISSOULA       MOCLDY    43  36  76 SE9       29.87F
BUTTE          LGT RAIN  36  34  92 NW3       29.86F
MULLAN PASS    FOG       30  30 100 CALM      29.81S VSB M1/4
* ESSEX        N/A       36  35  96 NE1        N/A
* LINCOLN      N/A       37  33  85 SW3G9      N/A
* LOOKOUT PASS N/A       36  35  96 W1         N/A
* POLSON       N/A       40  36  86 SE2        N/A
* SEELEY LAKE  N/A       36  34  92 N3         N/A
* THOMP F APT  CLOUDY    34  32  92 NE3        N/A
$$

MTZ008-052>055-250700-
SOUTHWEST MONTANA
CITY           SKY/WX    TMP DP  RH WIND       PRES   REMARKS
BOZEMAN        CLOUDY    41  36  82 CALM      29.85R
DILLON         PTCLDY    37  30  76 SW16      29.84S WCI  28
W YELLOWSTONE  N/A       33  33 100 SW2        N/A
* THREE FORKS  MOCLDY    43  43 100 N/A        N/A
* BOULDER HILL N/A       39  27  62 SE2        N/A
* MONIDA PASS  N/A       33  31  92 N/A        N/A
* RAYNOLDS PAS N/A       33  14  45 SE12G17    N/A   WCI  24
* WHITEHALL    N/A       43  37  79 SW3G16     N/A
* WISE RIVER   N/A       34  33  96 W3         N/A
$$

MTZ009>010-012-014-046-048-049-054-250700-
EAST SLOPES AND CENTRAL MONTANA
CITY           SKY/WX    TMP DP  RH WIND       PRES   REMARKS
CUT BANK       MOCLDY    41  30  65 W21G26    29.73S
GREAT FALLS    PTCLDY    43  30  60 SW16      29.75F
HELENA         CLOUDY    46  32  58 W7        29.82F
MALMSTROM AFB  PTCLDY    46  28  50 SW13      29.72F
* CONRAD       MOCLDY    41  30  65 N/A        N/A
* DEARBORN     N/A       50  26  39 SW9G15     N/A
* EAST GLACIER N/A       35  32  89 W16G24     N/A   WCI  25
* MONARCH      N/A       40  21  47 SW10G16    N/A   WCI  34
* PENDROY      N/A       38  28  67 W2         N/A
* ROGERS PASS  N/A       36  29  76 S3G11      N/A
* SAINT MARY   N/A       38  27  65 S10G22     N/A   WCI  31
* SWEET GRASS  N/A       42  34  73 W24G32     N/A
$$

MTZ011-013-016-021-035-040-045-047-050-051-250700-
NORTH CENTRAL MONTANA
CITY           SKY/WX    TMP DP  RH WIND       PRES   REMARKS
HAVRE          PTCLDY    43  36  76 SW10      29.71S
LEWISTOWN      CLEAR     39  30  70 VRB5      29.77F WCI  35
* CHESTER      N/A       43  30  60 N4G9       N/A
* DENTON       N/A       38  31  76 S7         N/A   WCI  33
* GEYSER       N/A       45  28  51 W9G18      N/A
* JUDITH GAP   N/A       35  31  85 SW9        N/A   WCI  28
* LOMA         N/A       45  33  63 SE3        N/A
$$

MTZ017>020-022>027-061-062-250700-
NORTHEAST MONTANA
CITY           SKY/WX    TMP DP  RH WIND       PRES   REMARKS
GLASGOW        PTCLDY    48  34  59 SW6       29.72R
GLENDIVE       MOCLDY    45  30  56 W8        29.76S
JORDAN         PTCLDY    37  30  76 NW3       29.74S
SIDNEY         CLOUDY    50  28  43 W12       29.73F
WOLF POINT     CLOUDY    48  28  46 SW5       29.72S
* BEAVER HILL  N/A       46  31  56 S11        N/A
* CIRCLE       N/A       47  33  58 N/A        N/A
* LINDSAY DVD  N/A       45  31  58 SW7        N/A
* NAVAJO       N/A       43  26  51 SW6        N/A
* SACO         N/A       44  33  65 SE12       N/A
$$

MTZ028>042-056>058-250700-
SOUTHCENTRAL AND SOUTHEAST MONTANA
CITY           SKY/WX    TMP DP  RH WIND       PRES   REMARKS
BAKER          PTCLDY    43  32  65 S6        29.78S
BILLINGS       PTCLDY    48  34  59 W13       29.80S
LIVINGSTON     CLEAR     36  34  92 NW12      29.81F WCI  28
MILES CITY     PTCLDY    46  34  63 CALM      29.77R
* LAUREL APT   CLEAR     43  25  49 W6         N/A
* ROUNDUP APT  CLEAR     45  34  65 SW8        N/A
* HYSHAM       N/A       44  29  56 SW1        N/A
* REED POINT   N/A       40  35  82 W3         N/A
* ROSCOE HILL  N/A       43  23  45 SE6        N/A
$$

REGIONAL REPORTS...DAKOTAS
CITY           SKY/WX    TMP DP  RH WIND       PRES   REMARKS
WILLISTON      CLOUDY    39  30  70 CALM      29.71S
DICKINSON      MOCLDY    43  27  53 SW8       29.74S
CROSBY         N/A       32  32 100 N/A        N/A
TIOGA          CLEAR     30  28  92 CALM      29.74S
WATFORD CITY   CLOUDY    34  27  76 CALM      29.70F
BISMARCK       CLEAR     34  28  79 CALM      29.75S
GRAND FORKS    FOG       39  37  93 NE5       29.71S VSB 1/2  WCI  35
FARGO          FOG       37  36  96 W5        29.72R VSB M1/4 WCI  33
BUFFALO SD     MOCLDY    45  30  56 SW6       29.73S
RAPID CITY     CLOUDY    41  28  60 NW5       29.81S
$$

REGIONAL REPORTS...WYOMING/IDAHO/WASHINGTON
CITY           SKY/WX    TMP DP  RH WIND       PRES   REMARKS
GILLETTE       MOCLDY    30  25  82 CALM      29.83R
SHERIDAN       CLEAR     37  30  76 S7        29.83S WCI  32
CODY           MOCLDY    45  32  60 W12G23    29.85F
YELLOWSTONE LA CLOUDY    30  30 100 CALM      29.96S
SALMON         CLOUDY    41  34  76 CALM      29.88S
MULLAN PASS    FOG       30  30 100 CALM      29.81S VSB M1/4
SPOKANE        CLOUDY    48  32  54 S8        29.79S

$$




USA.gov is the U.S. government's official web portal to all federal, state and local government web resources and services.